Location: Shenandoah County Park
(38.9356°N, 78.4524°W)
Time: 03:06:34
(UTC-04:00)

SR - Pass Details

Date: 10 February 2023
Orbit: 583 x 866 km, 66.7° (Epoch: 31 March)

Event Time Altitude Azimuth Distance (km) Brightness Sun altitude
Rises 12:01:44 0° 187° (S) 3,258 ? 36.4°
Reaches altitude 10° 12:04:21 10° 179° (S) 2,288 ? 36.5°
Maximum altitude 12:09:09 38° 113° (ESE) 1,093 ? 36.6°
Drops below altitude 10° 12:13:36 10° 45° (NE) 2,126 ? 36.7°
Sets 12:15:57 0° 38° (NE) 2,999 ? 36.7°
